Regional Weather Roundup
Issued by NWS

Home | Current Version | Previous Version | Graphics & Text | Print | Product List | Glossary On
Versions: 1 2 3 4 5 6 7 8 9 10 11 12 13 14 15 16 17 18 19 20 21 22 23 24 25 26 27 28 29 30 31 32 33 34 35 36 37 38 39 40 41 42 43 44 45 46 47 48 49 50
000
ASUS43 KMPX 272010
RWRMN
WEATHER ROUNDUP FOR MINNESOTA
NATIONAL WEATHER SERVICE TWIN CITIES/CHANHASSEN MN
300 PM CDT TUE SEP 27 2016


NOTE: "FAIR" INDICATES FEW OR NO CLOUDS BELOW 12,000 FEET WITH NO
SIGNIFICANT WEATHER AND/OR OBSTRUCTIONS TO VISIBILITY. N/A MEANS
CURRENT SKY AND/OR WEATHER CONDITIONS ARE NOT AVAILABLE.

MNZ060>063-068>070-272100-
   Twin Cities Metro

CITY           SKY/WX    TMP DP  RH WIND       PRES   REMARKS
TWIN CITIES    CLOUDY    59  41  51 NW15G25   29.78S
ST PAUL        CLOUDY    57  43  59 NW15      29.79R
CRYSTAL        CLOUDY    58  40  51 NW20G25   29.78S
LAKEVILLE      CLOUDY    57  39  51 NW12G24   29.78S
EDEN PRAIRIE   CLOUDY    63  40  42 NW13G28   29.77S
LAKEVILLE      CLOUDY    57  39  51 NW12G24   29.78S
SOUTH ST PAUL  PTSUNNY   58  41  52 NW12G22   29.78R
LAKE ELMO      CLOUDY    54  45  71 NW9       29.80R
$$
MNZ001>005-007-008-013>017-022>024-027-028-272100-
   Northwest Minnesota

CITY           SKY/WX    TMP DP  RH WIND       PRES   REMARKS
BEMIDJI        RAIN      47  45  95 NW15G23   29.83R
HALLOCK        CLOUDY    55  45  67 N18       29.89R
ROSEAU         CLOUDY    52  43  71 N12       29.86R
WARROAD        CLOUDY    48  45  87 NW8       29.87R
THIEF RVR FALL CLOUDY    52  44  74 NW16G24   29.87S
CROOKSTON      CLOUDY    55  43  62 N18G28    29.89S
FOSSTON        CLOUDY    48  41  76 NW14G20   29.86S
DETROIT LAKES  CLOUDY    54  43  66 N20G26    29.87S
MOORHEAD       SUNNY     63  43  48 N16G24    29.87S
PARK RAPIDS    LGT RAIN  50  42  74 NW17      29.83R
MAHNOMEN       CLOUDY    52  42  69 NW16G25   29.86S
$$
MNZ006-009>011-018-025>026-272100-
   North Central Minnesota

CITY           SKY/WX    TMP DP  RH WIND       PRES   REMARKS
BAUDETTE       LGT RAIN  48  45  89 N14       29.83R
FLAG ISLAND    PTSUNNY   48  43  81 N17       29.84R
INTL FALLS     CLOUDY    51  45  79 N16       29.79R
WASKISH        CLOUDY    46  45  93 N6        29.83R
BIG FORK       DRIZZLE   46  45  93 NW6       29.79S
GRAND RAPIDS   LGT RAIN  47  44  90 N14       29.80R FOG
ORR            CLOUDY    48  43  81 NW7       29.74R
COOK           PTSUNNY   46  45  93 NW6       29.76R
WALKER         RAIN      47  45  93 NW10G16   29.81S
$$
MNZ012-019>021-037-272100-
   Northeast Minnesota

CITY           SKY/WX    TMP DP  RH WIND       PRES   REMARKS
DULUTH         LGT RAIN  48  46  93 NW13G23   29.71S
ELY            CLOUDY    46  43  87 NW7       29.72R
HIBBING        LGT RAIN  45  43  93 N12       29.75R
EVELETH        LGT RAIN  46  44  90 NW12G18   29.74S
DULUTH HARBOR  LGT RAIN  48  46  93 W15       29.73R
TWO HARBORS    CLOUDY    52  46  82 N6        29.68R
SILVER BAY     CLOUDY    52  45  76 NW8       29.66R
GRAND MARAIS     N/A     55  46  71 N13G28    29.60R
G MARAIS ARPRT CLOUDY    50  43  76 NW12G22   29.64R
$$
MNZ029>031-032-039>041-046>048-054>057-064-272100-
   West Central Minnesota

CITY           SKY/WX    TMP DP  RH WIND       PRES   REMARKS
FERGUS FALLS   CLOUDY    61  41  48 NW16G23   29.87S
MORRIS         SUNNY     66  32  28 NW23G29   29.83S
ALEXANDRIA     CLOUDY    57  39  51 NW12G22   29.85R
ELBOW LAKE     FAIR      60  39  45 W15G22    29.85S
WADENA         CLOUDY    52  41  66 NW14G22   29.83F
GLENWOOD       CLOUDY    57  37  47 NW16G23   29.84S
BENSON         MOSUNNY   66  27  22 N20G28    29.83F
ORTONVILLE     SUNNY     66  30  26 NW17G25   29.86S
MADISON        SUNNY     70  32  24 NW18G25   29.85S
WILLMAR        FAIR      64  36  34 NW25      29.84S
$$
MNZ033>034-036-042>043-049>051-058-059-272100-
   Central Minnesota

CITY           SKY/WX    TMP DP  RH WIND       PRES   REMARKS
ST CLOUD       CLOUDY    55  43  63 NW16      29.81R
SAUK CENTRE    FAIR      55  40  56 NW15      29.83R
PAYNESVILLE    CLOUDY    59  36  42 NW16G25   29.82S
AITKIN         MIX PCPN  52  45  76 NW7       29.78S
PINE RIVER     LGT RAIN  48  46  93 NW8       29.85R
BRAINERD       LGT RAIN  50  46  86 NW10      29.81S
STAPLES        CLOUDY    50  39  66 NW12G23   29.83S
LONG PRAIRIE   FAIR      54  41  62 NW12G18   29.83S
LITTLE FALLS   CLOUDY    52  39  62 W15G21    29.82S
LITCHFIELD     CLOUDY    61  39  44 NW18G25   29.82S
BUFFALO        CLOUDY    59  40  49 W14G21    29.81S
MAPLE LAKE     CLOUDY    59  44  58 NW10G18   29.82R
HUTCHINSON     SUNNY     63  38  40 NW17G29   29.82S
$$
MNZ037-044-045-052-053-272100-
   East Central Minnesota

CITY           SKY/WX    TMP DP  RH WIND       PRES   REMARKS
PRINCETON      CLOUDY    55  43  62 NW12G17   29.81R
MORA           LGT RAIN  48  45  87 W7        29.81R
CAMBRIDGE      CLOUDY    55  43  62 NW14      29.78R
MOOSE LAKE     RAIN      48  45  87 NW8       29.74S
HINCKLEY       LGT RAIN  50  46  87 NW7G16    29.77S
CLOQUET        LGT RAIN  48  43  81 NW15G23   29.74R
MCGREGOR       CLOUDY    48  46  93 N9G17     29.78R
$$
MNZ071>073-080-081-089-090-097-098-272100-
   Southwest Minnesota

CITY           SKY/WX    TMP DP  RH WIND       PRES   REMARKS
MONTEVIDEO     SUNNY     70  36  28 N17G23    29.85F
GRANITE FALLS  SUNNY     68  33  27 W20G30    29.86S
CANBY          SUNNY     67  32  27 W17G28    29.87S
MARSHALL       SUNNY     68  29  23 NW16G28   29.84F
REDWOOD FALLS  SUNNY     66  30  26 NW15G25   29.82F
OLIVIA         MOSUNNY   68  36  30 NW13G24   29.81F
PIPESTONE      SUNNY     70  34  26 NW16      29.87F
WINDOM         SUNNY     70  28  21 NW17G26   29.84F
WORTHINGTON    SUNNY     68  40  35 W22G31    29.86F
JACKSON        SUNNY     70  27  19 W17G24    29.85F
TRACY          SUNNY     71  32  23 NW18G24   29.84F
SLAYTON        SUNNY     68  34  28 NW17G26   29.86F
$$
MNZ065>067-074>077-082>085-091>093-272100-
   South Central Minnesota

CITY           SKY/WX    TMP DP  RH WIND       PRES   REMARKS
MANKATO        MOSUNNY   66  35  31 NW16G24   29.80F
NEW ULM        MOSUNNY   64  36  34 NW18G30   29.81F
ST JAMES       SUNNY     68  32  26 NW16G28   29.83F
FAIRMONT       SUNNY     69  32  25 NW15G23   29.83F
GLENCOE        CLOUDY    63  40  43 W17G24    29.80S
FARIBAULT      PTSUNNY   63  37  39 W17G26    29.79S
OWATONNA       CLOUDY    63  32  31 NW21G28   29.80R
WASECA         PTSUNNY   64  32  29 NW21G29   29.81S
ALBERT LEA     SUNNY     64  34  32 NW13G22   29.80F
$$
MNZ078>079-086>088-094>096-272100-
   Southeast Minnesota

CITY           SKY/WX    TMP DP  RH WIND       PRES   REMARKS
ROCHESTER      CLOUDY    61  34  36 NW20G29   29.78S
RED WING       CLOUDY    59  39  47 NW12G18   29.76R
STANTON        CLOUDY    62  38  40 NW16G25   29.77S
DODGE CENTER   CLOUDY    61  32  33 NW16G30   29.78F
WINONA         PTSUNNY   59  43  55 NW15      29.75F
AUSTIN         MOSUNNY   63  32  31 W21G28    29.79F
PRESTON        PTSUNNY   60  34  38 NW18G30   29.77F
$$
ABBREVIATIONS USED IN REMARKS
   TC - TEMPERATURES IN CELSIUS
  WCI - WIND CHILL INDEX
   HX - HEAT INDEX
  VSB - VISIBILITY
$$



USA.gov is the U.S. government's official web portal to all federal, state and local government web resources and services.